[[{"header":{"parameterUnit":"m.s-1","parameterCategory":1,"la1":30.2991,"la2":30.254,"lo1":-89.0895,"lo2":-89.0444,"dy":0.0017,"dx":0.0017,"nx":28,"ny":28,"refTime":"2025-11-21T03:00:00:Z","depth":0,"parameterNumber":2,"parameterNumberName":"U-component_of_WINDS"},"data":[0,0,0,0,0,0,0,0,0,0,0,0,0,0,0,0,0,0,0,0,0,0,0,0,0,0,0,0,0,0,0,0,0,0,0,0,0,0,0,0,0,0,0,0,0,0,0,0,0,0,0,0,0,0,0,0,0,0,-2.7368,-2.7369,0,-2.7403,-2.7403,-2.7404,-2.7366,-2.7364,-2.7363,-2.7361,-2.7396,-2.7399,-2.7401,0,0,0,0,0,0,0,0,0,0,0,0,0,-2.7268,-2.727,-2.7368,-2.7369,-2.7369,-2.7403,-2.7403,-2.7404,-2.7366,-2.7364,-2.7362,-2.7361,-2.7396,-2.7398,-2.7401,0,0,0,0,0,0,0,0,0,0,0,0,0,-2.7308,-2.7271,-2.7368,-2.7354,-2.7353,-2.7403,-2.7403,-2.7404,-2.7366,-2.7364,-2.7362,-2.736,-2.7395,-2.7398,-2.7402,-2.7466,0,0,-2.7412,-2.7413,0,0,0,0,0,0,0,0,-2.7306,-2.7312,-2.7356,-2.7355,-2.7354,-2.7378,-2.7381,-2.7425,-2.7367,-2.7361,-2.7361,-2.7359,-2.7392,-2.7395,-2.7407,-2.7468,-2.7469,-2.7412,-2.7414,-2.7416,-2.7417,0,0,0,0,0,0,0,-2.7303,-2.731,-2.7382,-2.7356,-2.7356,-2.7346,-2.7349,-2.7389,-2.7388,-2.7362,-2.7359,-2.7364,-2.7391,-2.7404,-2.7407,-2.747,-2.7412,-2.7415,-2.7417,-2.7419,-2.7585,-2.7587,0,0,0,0,0,0,-2.7302,-2.7308,-2.7381,-2.7383,-2.7324,-2.735,-2.7353,-2.7372,-2.7388,-2.7388,-2.7365,-2.7362,-2.7399,-2.7403,-2.7408,-2.7484,-2.7416,-2.7419,-2.7421,-2.7583,-2.7585,-2.7588,0,0,0,0,0,0,-2.73,-2.7309,-2.7379,-2.7345,-2.7353,-2.7354,-2.7375,-2.7374,-2.7387,-2.7391,-2.739,-2.7378,-2.7397,-2.7404,-2.7452,-2.7485,-2.7421,-2.7424,-2.758,-2.7583,-2.7587,-2.7636,0,0,0,0,0,0,-2.7298,-2.7309,-2.7333,-2.7346,-2.7355,-2.7423,-2.7378,-2.7376,-2.7393,-2.7388,-2.7403,-2.7403,-2.7396,-2.7447,-2.7455,-2.7488,-2.7426,-2.7577,-2.7581,-2.7586,-2.7632,-2.7641,-2.7649,0,0,0,0,0,-2.7294,-2.7346,-2.7335,-2.7344,-2.7386,-2.7425,-2.743,-2.7421,-2.7396,-2.742,-2.7423,-2.7403,-2.748,-2.7452,-2.7461,-2.7496,-2.7575,-2.758,-2.7585,-2.7628,-2.7639,-2.7649,0,0,0,0,0,0,-2.7337,-2.7347,-2.7335,-2.7392,-2.7408,-2.7418,-2.7449,-2.7434,-2.7456,-2.7451,-2.7439,-2.7443,-2.7494,-2.75,-2.7469,-2.7559,-2.7523,-2.7531,-2.7553,-2.7564,-2.7572,-2.7569,-2.7429,0,0,0,0,0,-2.7354,-2.7384,-2.7391,-2.7441,-2.745,-2.7448,-2.7465,-2.7457,-2.7472,-2.7478,-2.7484,-2.75,-2.7528,-2.7546,-2.7572,-2.7633,-2.7635,-2.7661,-2.767,-2.7677,-2.7683,-2.7715,-2.7726,-2.7605,-2.7605,-2.7605,0,0,-2.7387,-2.7397,-2.7417,-2.745,-2.7461,-2.7493,-2.7454,-2.7489,-2.7512,-2.7483,-2.7529,-2.7535,-2.7551,-2.7606,-2.763,-2.7612,-2.7717,-2.7684,-2.769,-2.7692,-2.7721,-2.7733,-2.7743,-2.7609,-2.7608,-2.7608,0,0,-2.7464,-2.7475,-2.7517,-2.7529,-2.7546,-2.7545,-2.7555,-2.7568,-2.757,-2.7616,-2.7595,-2.7623,-2.7671,-2.7683,-2.7696,-2.7779,-2.776,-2.7788,-2.7832,-2.7863,-2.7873,-2.7881,-2.7909,-2.7919,-2.7794,-2.7794,-2.7794,0,-2.7504,-2.755,-2.7541,-2.7577,-2.7592,-2.7569,-2.7611,-2.7623,-2.7648,-2.7659,-2.7639,-2.7699,-2.7708,-2.7765,-2.7785,-2.7797,-2.7807,-2.7785,-2.7872,-2.788,-2.7888,-2.7915,-2.7925,-2.7797,-2.7797,-2.7796,-2.7796,0,-2.7597,-2.763,-2.7662,-2.7687,-2.7706,-2.7745,-2.7741,-2.7762,-2.7752,-2.7753,-2.78,-2.7811,-2.7838,-2.7851,-2.7842,-2.7907,-2.7895,-2.7874,-2.7838,-2.7903,-2.7927,-2.7938,-2.7801,-2.78,-2.7799,-2.7799,0,0,-2.7701,-2.772,-2.7732,-2.7742,-2.776,-2.7785,-2.7823,-2.785,-2.7867,-2.7886,-2.7917,-2.7959,-2.7939,-2.7954,-2.7946,-2.7974,-2.8037,-2.7949,-2.7949,-2.7964,-2.8107,-2.8121,-2.8133,-2.8026,-2.8028,-2.8029,-2.8105,0,-2.7777,-2.7843,-2.7836,-2.7899,-2.7928,-2.7906,-2.794,-2.7954,-2.7956,-2.7981,-2.7983,-2.8012,-2.7986,-2.7994,-2.802,-2.8023,-2.8065,-2.8018,-2.8053,-2.8055,-2.8048,-2.8146,-2.8161,-2.8232,-2.8114,-2.8116,-2.8117,0,-2.7874,-2.7896,-2.7961,-2.7974,-2.7986,-2.8016,-2.804,-2.8065,-2.808,-2.808,-2.8096,-2.8084,-2.8122,-2.8087,-2.8138,-2.8107,-2.8121,-2.8125,-2.8127,-2.8129,-2.8088,-2.8148,-2.8254,-2.8264,-2.8133,-2.8131,-2.813,0,-2.7941,-2.7987,-2.8032,-2.8042,-2.8058,-2.8079,-2.8087,-2.8101,-2.8117,-2.8138,-2.8148,-2.8174,-2.8187,-2.8207,-2.8202,-2.8177,-2.8255,-2.8219,-2.8254,-2.8254,-2.827,-2.8269,-2.8378,-2.8283,-2.8282,-2.8282,-2.8282,0,-2.8026,-2.8066,-2.8062,-2.8089,-2.8134,-2.8126,-2.817,-2.8175,-2.8188,-2.8215,-2.8199,-2.8225,-2.8218,-2.8244,-2.824,-2.8283,-2.829,-2.829,-2.8288,-2.829,-2.829,-2.8298,-2.8292,-2.8285,-2.8284,-2.8284,-2.8283,0,-2.8107,-2.8106,-2.8153,-2.8165,-2.8169,-2.8201,-2.8211,-2.8236,-2.8237,-2.8273,-2.8281,-2.8282,-2.8312,-2.8309,-2.8343,-2.8341,-2.8393,-2.8386,-2.8387,-2.8385,-2.842,-2.8416,-2.8537,-2.8552,-2.8448,-2.8449,-2.845,0,-2.816,-2.8191,-2.8206,-2.8223,-2.8232,-2.8261,-2.8277,-2.8271,-2.8289,-2.8309,-2.8332,-2.836,-2.8382,-2.8431,-2.8435,-2.8461,-2.8453,-2.8494,-2.8457,-2.8458,-2.8452,-2.8449,-2.8452,-2.85,-2.8502,-2.8503,-2.8503,0,-2.8254,-2.8252,-2.8277,-2.8301,-2.8321,-2.8341,-2.8358,-2.8373,-2.8368,-2.8389,-2.8419,-2.8436,-2.8471,-2.8499,-2.8523,-2.8531,-2.8516,-2.8515,-2.8525,-2.8526,-2.8525,-2.8524,-2.8405,-2.8512,-2.8511,-2.8511,-2.851,-2.851,-2.8322,-2.8348,-2.8362,-2.839,-2.8402,-2.8419,-2.8443,-2.8447,-2.8472,-2.8499,-2.8494,-2.8528,-2.8543,-2.8574,-2.8584,-2.861,-2.8596,-2.8609,-2.8613,-2.8616,-2.8619,-2.8522,-2.8615,-2.8615,-2.8615,-2.8614,-2.8614,0,-2.8413,-2.8422,-2.8447,-2.8472,-2.8494,-2.8479,-2.8497,-2.8516,-2.8546,-2.8561,-2.8583,-2.8618,-2.8645,-2.8652,-2.8677,-2.8697,-2.8691,-2.8704,-2.8701,-2.8703,-2.8631,-2.862,-2.8708,-2.8708,-2.8708,-2.8708,-2.8708,-2.8708,-2.8463,-2.8506,-2.8506,-2.8554,-2.8562,-2.8595,-2.8606,-2.8621,-2.8633,-2.8672,-2.8695,-2.8699,-2.871,-2.8737,-2.8761,-2.8762,-2.8772,-2.8787,-2.8786,-2.8718,-2.8709,-2.8699,-2.8689,-2.879,-2.879,-2.8855,-2.8856,-2.8856]},{"header":{"parameterUnit":"m.s-1","parameterCategory":1,"la1":30.2991,"la2":30.254,"lo1":-89.0895,"lo2":-89.0444,"dy":0.0017,"dx":0.0017,"nx":28,"ny":28,"refTime":"2025-11-21T03:00:00:Z","depth":0,"parameterNumber":3,"parameterNumberName":"V-component_of_WINDS"},"data":[0,0,0,0,0,0,0,0,0,0,0,0,0,0,0,0,0,0,0,0,0,0,0,0,0,0,0,0,0,0,0,0,0,0,0,0,0,0,0,0,0,0,0,0,0,0,0,0,0,0,0,0,0,0,0,0,0,0,0.1999,0.1999,0,0.198,0.198,0.1979,0.1977,0.1977,0.1977,0.1978,0.1956,0.1955,0.1955,0,0,0,0,0,0,0,0,0,0,0,0,0,0.2035,0.2034,0.1999,0.1999,0.1999,0.198,0.198,0.1979,0.1977,0.1977,0.1978,0.1978,0.1956,0.1956,0.1955,0,0,0,0,0,0,0,0,0,0,0,0,0,0.2018,0.2034,0.2,0.1996,0.1995,0.198,0.198,0.1979,0.1977,0.1977,0.1978,0.1978,0.1957,0.1956,0.1955,0.1942,0,0,0.1951,0.1951,0,0,0,0,0,0,0,0,0.2019,0.2017,0.1996,0.1996,0.1995,0.1981,0.1984,0.1967,0.1977,0.1984,0.1978,0.1978,0.1964,0.1962,0.1958,0.1941,0.194,0.1951,0.195,0.195,0.1949,0,0,0,0,0,0,0,0.202,0.2017,0.1992,0.1996,0.1995,0.1995,0.1993,0.1981,0.1973,0.1983,0.1983,0.1981,0.1964,0.1959,0.1958,0.1939,0.1951,0.195,0.1949,0.1949,0.1912,0.1912,0,0,0,0,0,0,0.2022,0.2018,0.1992,0.1991,0.2008,0.1994,0.1992,0.1985,0.1973,0.1971,0.1981,0.1981,0.1961,0.1959,0.1957,0.1942,0.195,0.1949,0.1948,0.1912,0.1912,0.1912,0,0,0,0,0,0,0.2023,0.202,0.1993,0.2005,0.2001,0.1993,0.1986,0.1985,0.198,0.1971,0.1969,0.1977,0.1961,0.1958,0.1946,0.1941,0.1948,0.1947,0.1913,0.1912,0.1912,0.1911,0,0,0,0,0,0,0.2024,0.202,0.2015,0.2005,0.2001,0.1982,0.1986,0.1984,0.1978,0.1978,0.1967,0.1966,0.1961,0.1948,0.1945,0.194,0.1946,0.1913,0.1912,0.1912,0.1911,0.1911,0.191,0,0,0,0,0,0.2025,0.2015,0.2015,0.2011,0.1994,0.1982,0.198,0.1975,0.1978,0.1973,0.1967,0.1966,0.1942,0.1946,0.1943,0.1937,0.1913,0.1913,0.1912,0.1912,0.1911,0.191,0,0,0,0,0,0,0.2024,0.2013,0.2013,0.1999,0.1992,0.1982,0.1975,0.1974,0.1965,0.1966,0.196,0.1958,0.1946,0.194,0.1945,0.1925,0.1928,0.1927,0.1929,0.1928,0.1927,0.1929,0.1945,0,0,0,0,0,0.2022,0.2013,0.2005,0.1993,0.199,0.1983,0.1978,0.1975,0.1967,0.1963,0.1957,0.1949,0.194,0.1933,0.1924,0.1911,0.1909,0.1906,0.1905,0.1904,0.1903,0.1897,0.1896,0.1909,0.1909,0.1909,0,0,0.2018,0.2011,0.2006,0.1993,0.1987,0.1978,0.198,0.197,0.1964,0.1962,0.195,0.1945,0.1936,0.1923,0.1917,0.1918,0.1899,0.1903,0.1903,0.1902,0.1896,0.1895,0.1894,0.1909,0.1909,0.1909,0,0,0.2006,0.2,0.199,0.1985,0.1976,0.1972,0.197,0.196,0.1957,0.1945,0.1944,0.1936,0.192,0.1914,0.1909,0.1897,0.1896,0.1894,0.189,0.1884,0.1883,0.1882,0.1878,0.1877,0.1893,0.1893,0.1893,0,0.2002,0.1989,0.1985,0.1976,0.1971,0.197,0.196,0.1955,0.1943,0.194,0.1941,0.1922,0.1916,0.1902,0.19,0.1895,0.1893,0.1895,0.1884,0.1882,0.1882,0.1878,0.1877,0.1893,0.1893,0.1893,0.1893,0,0.1985,0.1976,0.1969,0.1959,0.1953,0.1944,0.1939,0.1934,0.1932,0.1928,0.1917,0.191,0.19,0.1896,0.1894,0.1883,0.1884,0.1885,0.1887,0.188,0.1877,0.1875,0.1893,0.1893,0.1893,0.1893,0,0,0.197,0.196,0.1957,0.1954,0.1945,0.1938,0.1929,0.192,0.1916,0.1908,0.1901,0.1889,0.189,0.1884,0.1881,0.1876,0.1868,0.1877,0.1877,0.1876,0.1857,0.1856,0.1855,0.1868,0.1868,0.1867,0.1858,0,0.1958,0.1942,0.194,0.1926,0.1919,0.1918,0.1911,0.1905,0.1901,0.1894,0.189,0.1882,0.1884,0.188,0.1875,0.187,0.1864,0.1871,0.1861,0.1861,0.1864,0.1853,0.1852,0.1843,0.1856,0.1856,0.1856,0,0.1941,0.1934,0.192,0.1914,0.1911,0.1904,0.1896,0.189,0.1883,0.1881,0.1876,0.1874,0.1866,0.1869,0.1858,0.1862,0.1858,0.1856,0.1855,0.1854,0.1858,0.1852,0.184,0.1839,0.1854,0.1854,0.1854,0,0.1932,0.192,0.191,0.1907,0.1899,0.1895,0.1891,0.1885,0.1881,0.1874,0.1871,0.1863,0.1859,0.1853,0.185,0.1853,0.1839,0.1842,0.1837,0.1837,0.1834,0.1834,0.1822,0.1831,0.1831,0.1831,0.1831,0,0.1919,0.191,0.1907,0.1901,0.1892,0.189,0.1881,0.1877,0.1872,0.1866,0.1865,0.1859,0.1855,0.1849,0.1846,0.1837,0.1835,0.1833,0.1833,0.1834,0.1834,0.1831,0.1831,0.1831,0.1831,0.1831,0.1831,0,0.1908,0.1905,0.1895,0.1889,0.1887,0.1881,0.1876,0.187,0.1868,0.186,0.1858,0.1853,0.1846,0.1842,0.1833,0.1831,0.1821,0.1821,0.1824,0.1823,0.1819,0.182,0.1804,0.1803,0.1813,0.1813,0.1813,0,0.1899,0.1893,0.1887,0.1883,0.188,0.1873,0.1869,0.1867,0.1862,0.1856,0.1851,0.1844,0.1838,0.1827,0.1822,0.1815,0.1815,0.181,0.1814,0.1815,0.1816,0.1816,0.1816,0.1809,0.1809,0.1809,0.1809,0,0.1885,0.1884,0.1878,0.1872,0.1868,0.1863,0.1858,0.1854,0.1852,0.1847,0.184,0.1835,0.1827,0.182,0.1813,0.1809,0.1809,0.1808,0.1807,0.1807,0.181,0.1809,0.1822,0.1808,0.1808,0.1809,0.1809,0.1809,0.1875,0.187,0.1866,0.186,0.1856,0.1852,0.1847,0.1844,0.1838,0.1831,0.1831,0.1823,0.1818,0.1809,0.1806,0.18,0.1801,0.1799,0.1798,0.1798,0.1798,0.1811,0.1799,0.1799,0.1799,0.1799,0.1799,0,0.1861,0.1859,0.1853,0.1847,0.1843,0.1844,0.1839,0.1835,0.1828,0.1824,0.1819,0.1811,0.1805,0.1801,0.1795,0.1791,0.1791,0.179,0.179,0.1789,0.1797,0.1799,0.179,0.179,0.179,0.179,0.179,0.179,0.1853,0.1846,0.1845,0.1835,0.1833,0.1826,0.1824,0.182,0.1817,0.1809,0.1804,0.1802,0.1798,0.1791,0.1786,0.1785,0.1783,0.1782,0.1781,0.1788,0.1789,0.179,0.1791,0.1781,0.1781,0.1773,0.1773,0.1773]}]]